Volver al catálogo

ARIANE 44L DEB

LostHEO
NORAD 34181·DEBRIS·🇫🇷 France

Lanzado Jul 9, 1992 desde Guiana Space Centre

Loading…

Próximos Pases (próximas 24 horas)

TLE

ObsoletoSource: Space-Track

Época: Oct 23, 2024, 22:42 UTC

1 34181U 92041K   24297.94606704  .00003391  00000-0  86530-2 0  9993
2 34181   6.3241 103.1858 6954366 341.8875   2.2893  2.60228441173831

Sigue ARIANE 44L DEB en tiempo real con AllMySat

Download on the App Store